Main page
METAR-TAF:

METAR-TAF

Airports :

K14-fa-1c, Netherlands

Oil platform

latitude: 53-16-10N, longitude: 3-37-40E, elevation: 28 m

Current weather observation

The report was made 25 minutes ago, at 01:55 UTC
Wind 16 kt from the North/Northwest, varying between West/Northwest and North
Temperature 7°C
Humidity 66%
Pressure 1019 hPa
Visibility 10 km or more
Few clouds at a height of 2200 ft, Cumulonimbus.
Scattered clouds at a height of 2600 ft

METAR: EHKV 170155Z AUTO 33016KT 290V350 9999 FEW022CB SCT026 07/01 Q1019 W///H///

Time: 03:20 (02:20 UTC)


TAF: missing

Weather observations and forecasts of more than 4000 airports (METAR and TAF reports).

The available stations are represented by yellow and red dots on the map.

Hover mouse over dot to see the name of the station.

Then click to see weather observations and forecasts.

To change the map : click on the green buttons with a black cross to zoom in, on the green button with a dash to zoom out, or on the green arrows for adjacent maps.


METAR-TAF: